Temp
-2 -2 -2 -1 -1 -1 -2 -2 -2 -2 -2 -3 -3 -3 -3 -4 -4 -4 -4 -4 -4 -4 -4 -4 -4 -4 -4 -4 -4 -4 -4 -5 -5 -5 -5 -4 -4 -4 -4 -4 -4 -4
-2 -2 -2 -2 -2 -2 -2 -2 -3 -3 -3 -4 -4 -4 -4 -5 -5 -5 -5 -5 -5 -5 -5 -5 -5 -5 -5 -5 -5 -6 -6 -6 -6 -6 -6 -5 -5 -5 -5 -5 -5 -5
-2 -2 -2 -2 -2 -3 -3 -3 -4 -4 -5 -5 -5 -5 -6 -6 -6 -6 -6 -6 -6 -6 -6 -6 -6 -6 -6 -6 -6 -6 -6 -7 -7 -7 -7 -7 -7 -6 -6 -6 -6 -6
-3 -3 -3 -3 -3 -4 -4 -5 -5 -6 -6 -6 -6 -7 -7 -7 -7 -8 -8 -8 -8 -8 -8 -8 -8 -8 -8 -8 -7 -7 -8 -8 -8 -8 -8 -8 -8 -7 -7 -7 -7 -7
-4 -4 -4 -4 -4 -4 -5 -6 -6 -7 -7 -7 -7 -7 -7 -8 -8 -8 -9 -9 -9 -9 -9 -9 -9 -9 -9 -9 -9 -9 -9 -9 -9 -9 -9 -9 -9 -9 -8 -8 -8 -8
-4 -5 -5 -5 -5 -5 -6 -6 -7 -7 -7 -7 -8 -8 -8 -8 -8 -9 -9 -9 -9 -9 -10 -10 -10 -10 -10 -10 -10 -10 -10 -10 -10 -10 -10 -10 -10 -10 -9 -9 -9 -9
-5 -5 -6 -6 -6 -7 -7 -7 -7 -8 -8 -8 -8 -8 -8 -9 -9 -9 -9 -9 -9 -9 -10 -10 -10 -10 -10 -10 -10 -10 -10 -10 -10 -10 -10 -10 -10 -10 -10 -10 -10 -9
-6 -6 -7 -7 -7 -8 -8 -8 -8 -8 -9 -9 -9 -9 -9 -9 -9 -9 -9 -10 -10 -10 -10 -10 -10 -10 -10 -10 -10 -10 -10 -10 -10 -10 -10 -10 -10 -10 -11 -11 -10 -10
-7 -7 -8 -8 -8 -9 -9 -9 -9 -10 -10 -10 -10 -10 -10 -10 -10 -10 -10 -10 -11 -11 -11 -11 -11 -11 -11 -11 -11 -10 -10 -10 -10 -11 -10 -10 -10 -11 -11 -11 -11 -11
-8 -9 -9 -9 -9 -10 -10 -10 -11 -11 -11 -11 -11 -11 -11 -11 -11 -11 -11 -11 -11 -11 -11 -11 -11 -11 -11 -11 -11 -11 -11 -11 -11 -11 -11 -11 -11 -11 -11 -11 -11 -11
-10 -10 -10 -10 -11 -11 -11 -12 -12 -12 -12 -12 -11 -11 -11 -11 -12 -11 -11 -11 -11 -11 -11 -11 -11 -11 -11 -11 -11 -11 -11 -11 -11 -11 -11 -11 -11 -11 -11 -11 -11 -11
-10 -11 -11 -11 -12 -12 -12 -12 -12 -12 -12 -12 -12 -12 -12 -12 -12 -12 -12 -12 -12 -12 -12 -12 -12 -12 -12 -12 -12 -12 -12 -12 -12 -12 -12 -12 -12 -12 -12 -12 -12 -12
-11 -12 -12 -12 -12 -12 -12 -12 -12 -12 -12 -12 -12 -12 -12 -12 -12 -12 -12 -12 -12 -12 -12 -12 -12 -13 -13 -13 -13 -13 -13 -13 -13 -13 -13 -13 -13 -13 -13 -13 -13 -13
-12 -12 -12 -12 -12 -12 -12 -12 -12 -12 -12 -12 -12 -12 -12 -12 -12 -12 -12 -13 -13 -13 -13 -13 -13 -13 -13 -13 -14 -14 -14 -14 -14 -14 -14 -14 -14 -14 -14 -14 -14 -14
-12 -13 -13 -13 -13 -13 -12 -12 -12 -12 -12 -12 -13 -13 -13 -13 -13 -13 -13 -13 -13 -13 -13 -14 -14 -14 -14 -14 -14 -14 -14 -14 -14 -14 -14 -14 -14 -14 -14 -14 -14 -14
-13 -13 -13 -13 -13 -13 -12 -12 -12 -13 -13 -13 -13 -13 -13 -13 -13 -13 -13 -13 -14 -14 -14 -14 -14 -15 -15 -15 -15 -15 -15 -15 -15 -15 -15 -14 -14 -14 -14 -14 -14 -14
-13 -13 -13 -13 -13 -13 -13 -13 -13 -13 -13 -13 -13 -13 -13 -13 -14 -14 -14 -14 -14 -14 -14 -15 -15 -15 -15 -15 -15 -15 -15 -15 -15 -15 -15 -14 -14 -14 -14 -14 -14 -14
-13 -13 -13 -13 -13 -13 -13 -13 -13 -13 -13 -13 -13 -13 -14 -14 -14 -14 -14 -14 -15 -15 -15 -15 -15 -15 -15 -15 -15 -15 -15 -15 -15 -15 -15 -14 -14 -14 -14 -14 -14 -14
-13 -13 -13 -13 -13 -13 -13 -13 -13 -13 -13 -14 -14 -14 -14 -14 -15 -15 -15 -15 -15 -15 -15 -15 -15 -15 -15 -15 -15 -15 -15 -15 -15 -15 -14 -14 -14 -14 -15 -15 -14 -14
-14 -14 -14 -14 -14 -13 -13 -14 -14 -14 -14 -14 -14 -14 -14 -15 -15 -15 -15 -15 -15 -15 -15 -15 -15 -15 -15 -15 -15 -15 -15 -15 -15 -15 -15 -15 -15 -15 -15 -15 -15 -14
-14 -14 -14 -14 -14 -14 -14 -14 -14 -14 -14 -14 -14 -14 -15 -15 -15 -15 -15 -16 -16 -16 -16 -15 -15 -15 -15 -15 -15 -15 -15 -15 -15 -15 -15 -15 -15 -15 -15 -15 -15 -15
-14 -14 -14 -14 -14 -14 -14 -14 -14 -14 -14 -15 -15 -15 -15 -15 -16 -16 -16 -16 -16 -16 -16 -16 -16 -15 -15 -15 -15 -15 -15 -15 -15 -16 -16 -16 -15 -15 -15 -15 -15 -15
-14 -14 -14 -14 -14 -14 -14 -14 -14 -15 -15 -15 -15 -15 -15 -16 -16 -16 -16 -16 -16 -16 -16 -16 -16 -16 -15 -15 -15 -15 -16 -16 -16 -16 -16 -16 -16 -16 -16 -15 -15 -15
-14 -14 -14 -14 -14 -14 -14 -15 -15 -15 -15 -15 -15 -16 -16 -16 -16 -16 -16 -16 -16 -16 -16 -16 -16 -16 -16 -16 -16 -16 -16 -16 -16 -16 -16 -16 -16 -16 -16 -15 -15 -15
-14 -14 -14 -14 -14 -15 -15 -15 -15 -15 -15 -15 -16 -16 -16 -16 -17 -16 -16 -16 -16 -16 -16 -16 -16 -16 -16 -16 -16 -17 -17 -17 -17 -16 -16 -16 -16 -16 -16 -15 -15 -15
-15 -15 -15 -15 -15 -15 -15 -15 -15 -15 -15 -16 -16 -16 -17 -17 -17 -17 -16 -16 -16 -16 -16 -16 -16 -16 -16 -16 -17 -17 -17 -17 -17 -17 -17 -16 -16 -16 -16 -16 -16 -16
Height
3108 3107 3106 3106 3105 3104 3103 3102 3101 3100 3098 3097 3097 3096 3095 3094 3093 3092 3091 3090 3089 3088 3086 3085 3084 3083 3082 3081 3080 3079 3078 3077 3077 3076 3076 3075 3074 3074 3072 3071 3070 3068
3104 3103 3102 3101 3100 3099 3098 3097 3096 3094 3093 3092 3091 3090 3089 3088 3087 3086 3085 3084 3083 3082 3081 3080 3079 3078 3077 3076 3074 3073 3073 3072 3072 3071 3070 3069 3069 3068 3067 3066 3064 3063
3098 3097 3096 3095 3094 3093 3092 3091 3090 3089 3088 3086 3085 3084 3083 3082 3082 3081 3080 3079 3078 3076 3075 3075 3074 3073 3071 3070 3069 3068 3067 3066 3066 3066 3065 3064 3063 3062 3061 3060 3059 3057
3093 3092 3091 3089 3088 3087 3086 3085 3084 3083 3082 3080 3079 3078 3077 3076 3075 3074 3074 3072 3071 3070 3070 3069 3068 3067 3065 3064 3063 3062 3061 3061 3060 3060 3059 3058 3057 3056 3055 3054 3053 3052
3088 3086 3085 3084 3083 3082 3080 3079 3078 3078 3076 3075 3074 3073 3072 3071 3070 3069 3068 3067 3066 3065 3064 3063 3062 3061 3059 3058 3058 3057 3056 3056 3055 3054 3053 3053 3052 3051 3049 3048 3047 3046
3083 3082 3081 3080 3078 3077 3076 3075 3074 3073 3072 3071 3070 3069 3068 3067 3066 3065 3064 3063 3062 3060 3059 3058 3056 3055 3053 3053 3052 3051 3050 3050 3049 3048 3047 3047 3046 3045 3044 3042 3040 3039
3078 3077 3076 3075 3074 3073 3072 3072 3071 3070 3069 3068 3067 3066 3065 3064 3062 3061 3060 3059 3058 3056 3055 3053 3051 3050 3048 3047 3046 3045 3044 3042 3041 3040 3039 3039 3038 3037 3036 3034 3033 3032
3074 3073 3072 3071 3070 3069 3069 3068 3067 3066 3065 3064 3063 3062 3061 3060 3059 3057 3056 3054 3053 3052 3050 3049 3047 3045 3044 3043 3041 3040 3038 3037 3035 3034 3032 3031 3030 3028 3027 3025 3024 3023
3071 3070 3068 3068 3067 3066 3065 3064 3062 3061 3060 3059 3058 3057 3056 3055 3054 3053 3051 3050 3048 3047 3045 3044 3042 3040 3039 3037 3036 3034 3033 3031 3030 3028 3026 3025 3023 3021 3020 3018 3016 3015
3066 3065 3064 3063 3062 3061 3060 3059 3058 3057 3055 3055 3054 3053 3052 3050 3049 3048 3046 3045 3044 3042 3040 3038 3036 3035 3033 3031 3029 3027 3026 3024 3023 3021 3020 3018 3016 3015 3013 3011 3009 3008
3061 3060 3059 3058 3057 3056 3055 3054 3053 3053 3052 3051 3050 3048 3047 3046 3044 3043 3041 3040 3038 3036 3034 3032 3030 3029 3027 3025 3023 3021 3019 3017 3015 3014 3013 3011 3009 3008 3006 3004 3002 3000
3056 3055 3054 3053 3053 3052 3051 3050 3049 3048 3047 3046 3045 3044 3042 3041 3039 3038 3036 3034 3032 3030 3028 3026 3024 3022 3020 3018 3016 3014 3012 3011 3009 3007 3005 3003 3002 3000 2999 2996 2994 2992
3052 3051 3050 3049 3049 3048 3047 3046 3045 3044 3042 3041 3039 3038 3037 3035 3033 3032 3030 3028 3026 3024 3022 3020 3018 3016 3014 3012 3010 3008 3006 3004 3002 3000 2998 2997 2995 2993 2991 2989 2987 2985
3047 3046 3046 3045 3044 3044 3043 3042 3040 3039 3037 3036 3034 3032 3031 3029 3028 3026 3024 3022 3020 3019 3017 3014 3012 3010 3008 3006 3003 3001 2999 2997 2995 2993 2991 2990 2988 2986 2984 2982 2979 2977
3043 3043 3042 3041 3040 3039 3038 3037 3035 3034 3032 3030 3029 3027 3025 3024 3022 3020 3019 3017 3015 3013 3011 3009 3007 3004 3002 2999 2997 2995 2993 2991 2989 2987 2984 2982 2981 2979 2977 2974 2971 2969
3039 3039 3038 3037 3036 3035 3033 3032 3030 3028 3027 3025 3024 3022 3020 3018 3017 3015 3013 3011 3009 3007 3005 3003 3001 2999 2996 2994 2991 2988 2986 2984 2982 2980 2977 2975 2972 2970 2968 2966 2963 2960
3035 3034 3033 3032 3031 3030 3028 3027 3025 3024 3022 3020 3019 3017 3015 3013 3011 3010 3008 3006 3004 3002 3000 2998 2996 2994 2991 2988 2986 2982 2979 2977 2974 2972 2970 2967 2963 2961 2958 2956 2953 2950
3031 3030 3028 3027 3026 3025 3023 3022 3020 3019 3017 3016 3014 3012 3010 3008 3006 3005 3003 3001 2999 2997 2995 2993 2991 2989 2986 2983 2980 2977 2973 2970 2967 2964 2961 2958 2955 2951 2948 2945 2942 2939
3026 3025 3023 3022 3021 3020 3018 3017 3016 3014 3013 3011 3009 3007 3005 3003 3002 3000 2998 2996 2994 2992 2990 2988 2986 2983 2981 2977 2974 2971 2968 2964 2960 2957 2954 2950 2946 2942 2939 2936 2933 2930
3021 3020 3019 3017 3016 3015 3014 3012 3011 3009 3008 3006 3004 3002 3000 2999 2997 2995 2993 2991 2989 2987 2985 2983 2981 2978 2975 2972 2969 2965 2961 2957 2953 2950 2946 2942 2938 2934 2931 2927 2924 2921
3017 3016 3014 3013 3012 3011 3009 3008 3006 3004 3003 3001 2999 2997 2995 2993 2991 2990 2988 2986 2984 2982 2980 2978 2976 2973 2969 2966 2963 2959 2955 2950 2946 2942 2939 2935 2931 2927 2924 2920 2916 2913
3012 3011 3010 3009 3008 3006 3005 3003 3001 2999 2998 2996 2994 2992 2990 2988 2986 2985 2983 2981 2979 2977 2974 2973 2970 2967 2963 2960 2956 2952 2947 2943 2939 2935 2932 2928 2925 2920 2916 2912 2909 2906
3008 3007 3006 3004 3003 3001 3000 2998 2996 2994 2992 2990 2989 2987 2985 2983 2982 2980 2978 2976 2974 2971 2969 2967 2965 2961 2957 2953 2949 2944 2940 2936 2932 2928 2925 2921 2917 2913 2909 2906 2902 2899
3003 3002 3001 2999 2998 2996 2995 2993 2991 2989 2987 2985 2983 2982 2980 2978 2977 2975 2974 2971 2969 2966 2964 2961 2959 2955 2951 2947 2942 2937 2932 2928 2924 2921 2918 2914 2910 2906 2902 2899 2896 2893
2999 2997 2996 2994 2993 2991 2989 2988 2986 2984 2982 2980 2978 2976 2975 2973 2972 2970 2969 2966 2964 2961 2958 2955 2953 2950 2945 2940 2935 2930 2926 2921 2918 2914 2910 2907 2903 2899 2895 2892 2889 2886
2994 2992 2991 2989 2988 2986 2984 2982 2980 2978 2976 2974 2973 2971 2970 2968 2967 2965 2963 2961 2959 2956 2953 2949 2946 2943 2939 2934 2929 2924 2920 2915 2911 2907 2903 2900 2896 2892 2888 2885 2882 2878
Wind_Speed
35 37 39 41 43 44 44 44 44 44 43 43 42 42 41 41 40 40 40 40 40 41 40 40 40 40 40 40 40 40 41 41 41 41 41 42 42 43 43 43 44 44
41 43 45 46 46 46 45 44 44 43 42 41 41 41 40 40 39 38 37 37 38 38 39 39 39 39 39 39 39 39 39 40 40 41 41 42 43 43 44 44 44 45
45 46 46 46 46 46 45 44 43 42 41 40 40 39 39 38 38 37 36 36 36 36 37 37 38 38 39 39 39 40 40 40 40 40 41 42 43 43 44 44 45 45
45 45 45 45 45 45 45 44 42 41 40 40 40 39 39 38 37 36 35 35 34 34 34 35 36 37 37 38 39 40 40 41 42 42 42 43 43 44 45 45 45 46
44 44 44 45 45 45 44 43 42 41 41 41 41 41 41 40 39 37 36 35 35 34 34 34 35 36 37 37 38 39 39 40 41 42 42 43 43 44 45 46 47 47
44 44 44 45 45 44 44 43 42 42 42 42 42 41 40 40 39 38 38 37 37 37 37 38 38 38 39 39 39 40 40 41 41 42 42 43 43 44 45 46 47 48
44 44 44 43 43 42 41 41 41 41 41 41 41 40 40 39 39 39 39 39 39 39 39 40 41 41 42 43 43 44 44 45 46 46 46 47 47 47 47 47 48 48
45 44 43 42 41 41 40 40 40 40 40 39 39 38 38 38 38 38 39 39 39 40 40 41 42 43 44 45 46 47 47 48 49 49 50 50 51 51 50 50 50 51
42 41 41 40 39 39 39 38 38 38 38 38 37 36 36 37 37 37 38 39 40 41 42 44 45 46 47 47 48 48 49 49 49 50 51 51 52 52 52 53 53 53
39 38 38 37 37 36 35 35 36 37 37 36 36 36 37 37 38 39 40 42 43 45 46 47 48 49 49 49 49 50 50 50 50 50 50 51 52 52 53 54 54 54
36 35 35 34 33 33 33 34 35 35 36 36 37 38 39 40 41 43 44 45 46 47 48 48 48 48 48 49 49 49 49 50 50 50 50 51 51 52 53 54 55 55
34 34 33 33 32 32 33 34 35 36 37 38 39 41 42 43 44 45 46 46 47 47 47 47 47 47 47 48 48 48 49 49 50 50 50 51 51 52 53 54 55 56
33 32 32 32 33 33 34 35 36 38 40 41 43 44 45 45 45 45 45 45 45 45 45 45 45 46 46 47 47 48 48 48 49 49 50 51 52 53 54 55 56 58
32 32 32 33 33 34 36 38 39 41 43 44 44 45 45 44 44 44 43 43 43 44 44 44 44 45 45 45 46 46 47 48 49 50 51 52 54 55 56 57 58 59
31 32 32 34 35 37 39 41 42 43 43 43 44 43 43 43 43 43 43 42 43 43 43 43 43 43 44 44 45 46 47 49 50 52 54 55 56 57 58 59 60 61
31 33 35 37 39 40 41 42 42 42 42 42 42 42 42 42 42 42 41 41 41 41 41 41 42 42 43 44 46 48 49 51 53 54 56 58 59 60 60 61 62 62
34 36 38 39 40 41 41 41 41 41 41 41 41 41 41 41 41 40 40 40 40 40 40 41 41 42 44 45 47 50 52 54 56 58 59 60 61 62 63 63 62 61
37 39 39 40 40 40 40 40 40 40 40 40 40 40 40 40 39 39 39 39 39 40 40 41 42 43 45 47 49 52 54 57 58 60 61 62 63 64 63 62 61 60
38 38 39 39 39 39 40 39 39 38 38 38 39 39 39 39 39 39 39 39 39 40 41 42 43 44 46 49 51 53 56 58 60 61 62 63 64 63 61 61 60 60
37 37 37 38 39 39 38 37 37 37 37 38 38 38 38 38 38 38 38 39 40 40 41 42 44 46 48 50 53 55 57 59 61 62 63 62 61 60 60 61 61 62
35 36 37 37 37 36 36 36 36 36 37 37 38 38 38 38 38 38 39 39 40 41 42 43 45 47 49 51 54 56 58 60 61 61 60 59 59 59 60 61 61 61
35 35 36 36 35 35 35 35 35 36 37 37 38 38 38 38 38 38 39 40 40 42 43 44 46 48 51 53 55 57 59 60 60 58 57 57 58 58 59 60 60 60
34 35 34 34 34 34 35 35 36 37 37 38 37 37 37 37 37 38 39 39 41 42 44 45 46 49 52 54 56 58 58 58 57 56 56 56 57 57 58 58 58 58
34 34 34 34 34 35 35 36 36 37 37 38 38 37 37 37 37 38 39 40 41 42 44 46 47 50 52 54 56 57 56 56 55 55 55 55 55 56 56 57 56 56
34 34 35 35 35 36 36 36 37 37 38 38 37 37 37 37 37 38 39 40 41 43 45 47 49 50 52 54 55 54 54 54 54 53 53 53 54 55 56 56 56 54
35 35 36 36 36 37 37 37 38 38 38 37 36 36 36 37 38 39 39 40 42 43 46 48 49 50 52 53 53 52 52 52 52 52 52 53 54 55 55 56 55 53
Wind_Direction
294 295 296 298 299 300 301 301 302 303 303 303 304 304 304 303 302 301 299 298 297 296 295 294 293 292 290 289 288 288 287 286 284 283 282 281 280 280 279 279 279 278
298 299 299 300 301 302 302 303 303 304 304 304 304 304 304 304 303 302 300 297 295 293 292 291 291 290 289 287 286 285 284 282 281 279 278 277 277 277 277 277 276 276
300 301 301 302 302 303 304 305 306 307 307 307 307 306 305 305 304 302 300 298 296 294 292 291 290 289 289 288 287 287 285 283 281 279 277 276 276 276 276 276 276 276
301 302 303 305 305 306 307 308 309 310 310 310 310 310 309 308 307 305 303 301 299 297 295 293 292 291 291 290 290 288 287 286 285 283 281 280 279 278 277 277 276 276
303 305 306 307 307 308 309 310 311 311 311 310 310 309 308 308 308 307 306 305 303 302 300 298 297 295 294 292 291 289 288 286 285 284 283 282 281 280 279 279 278 277
306 307 307 307 307 307 308 308 308 308 308 307 306 306 305 305 305 304 304 303 302 301 300 300 299 298 297 296 294 293 291 290 288 287 285 283 282 281 280 279 278 278
307 306 306 306 306 305 304 303 303 302 302 302 301 301 301 302 302 301 301 301 300 299 299 299 298 298 298 298 297 296 295 294 293 292 291 289 288 286 284 283 281 280
305 305 305 304 303 302 301 300 299 299 300 300 300 300 300 300 300 300 299 299 298 298 297 297 296 296 296 295 295 294 293 293 292 292 291 291 290 290 289 288 287 285
302 301 300 299 299 298 298 299 300 301 302 303 303 303 302 302 301 300 299 298 297 297 296 296 296 295 295 294 293 292 291 290 289 288 288 288 288 288 288 288 288 287
300 299 298 298 298 299 300 300 301 302 303 303 303 302 301 300 300 298 298 297 296 296 296 296 295 295 294 294 293 292 291 290 289 289 288 287 287 287 286 286 286 286
298 298 298 299 299 300 300 299 300 300 300 300 300 299 299 299 298 298 297 297 296 296 296 295 295 295 294 294 293 293 293 292 292 291 290 289 288 288 287 287 286 286
298 297 298 298 299 299 298 297 298 298 298 298 298 298 298 298 297 297 296 296 296 296 296 296 296 296 295 295 294 294 293 293 292 292 292 291 291 290 290 290 289 288
296 296 297 297 298 297 297 296 296 297 297 297 297 297 297 297 297 296 296 297 297 297 297 297 297 296 296 295 295 294 294 294 294 294 294 293 293 293 293 292 292 291
295 296 296 296 296 296 295 296 296 296 296 296 296 296 297 297 297 297 298 298 298 298 298 297 297 297 297 296 296 296 296 296 296 296 295 295 295 295 295 294 294 293
294 295 295 295 294 294 294 295 295 295 296 296 297 297 298 298 299 299 300 300 300 300 299 299 299 299 299 299 298 298 298 297 297 297 297 297 296 296 296 295 295 294
294 294 294 294 294 294 295 295 296 296 296 297 298 299 300 301 302 302 302 302 302 301 300 300 300 300 300 300 300 300 300 299 299 299 299 298 298 297 296 296 295 294
294 294 293 293 293 294 295 295 296 297 298 300 301 303 304 304 304 304 304 303 302 302 302 302 302 302 301 301 302 301 301 301 301 300 300 300 300 299 298 297 296 295
293 293 292 292 293 294 295 296 298 299 301 303 304 305 305 305 305 304 304 303 303 303 302 302 302 302 302 302 302 302 302 302 302 302 302 302 302 301 300 299 298 297
291 291 291 292 293 294 296 298 300 302 304 305 306 306 306 305 305 304 303 303 302 302 302 302 302 303 303 303 303 303 303 303 304 304 304 303 303 302 301 300 298 297
289 289 290 291 293 295 297 300 302 305 306 306 307 307 306 305 303 303 302 302 301 301 301 302 303 304 304 304 304 304 304 305 305 305 304 304 303 302 300 299 298 297
286 287 289 290 293 296 299 302 304 306 306 307 307 306 305 303 302 302 301 301 301 302 302 303 304 304 304 305 305 305 306 306 306 305 304 303 302 301 300 299 298 297
285 287 288 290 294 297 301 303 305 305 305 305 305 304 303 301 300 300 301 301 302 302 303 304 305 305 306 306 307 307 307 307 306 305 304 303 301 300 299 299 298 298
285 287 289 292 296 299 301 303 304 304 304 303 303 302 300 299 299 299 300 301 302 303 304 305 306 306 307 308 309 309 308 307 306 305 304 303 301 300 299 299 300 301
286 288 291 294 297 299 300 302 302 302 302 302 301 300 299 298 298 299 301 302 303 304 305 306 307 308 310 311 312 311 309 308 306 305 304 302 301 301 301 302 303 305
288 290 292 294 296 298 300 300 300 300 300 300 300 299 298 298 298 300 301 302 303 305 306 307 308 310 312 314 313 311 309 308 306 305 304 304 303 303 304 306 308 310
290 291 293 295 297 298 299 299 299 300 300 300 299 297 297 297 299 300 301 303 304 306 307 309 310 312 315 316 314 312 309 308 307 306 306 306 306 307 308 310 311 311